Regional Weather Roundup
Issued by NWS Newport/Morehead, NC

Current Version | Previous Version | Graphics & Text | Print | Product List | Glossary Off
Versions: 1 2 3 4 5 6 7 8 9 10 11 12 13 14 15 16 17 18 19 20 21 22 23 24 25 26 27 28 29 30 31 32 33 34 35 36 37 38 39 40 41 42 43 44 45 46 47 48 49 50

000
ASUS42 KMHX 050925
RWRMHX
WEATHER ROUNDUP FOR EASTERN NORTH CAROLINA
NATIONAL WEATHER SERVICE NEWPORT/MOREHEAD CITY NC
500 AM EDT SAT SEP 05 2015

NOTE: "FAIR" INDICATES FEW OR NO CLOUDS BELOW 12,000 FEET
WITH NO SIGNIFICANT WEATHER AND/OR OBSTRUCTIONS TO VISIBILITY

NCZ015>017-031-032-045>047-102-103-051000-
NORTH COAST

CITY           SKY/WX    TMP DP  RH WIND       PRES   REMARKS
EDENTON        CLEAR     69  67  96 N3        30.06S FOG
ELIZABETH CITY PTCLDY    75  72  90 N8        30.06R
KITTY HAWK     SUNNY     77  72  82 NE8       30.02F
MANTEO         PTCLDY    77  71  82 NE9       30.04S

$$

NCZ045>047-081-094-103-104-051000-
CENTRAL COAST

CITY           SKY/WX    TMP DP  RH WIND       PRES   REMARKS
FRISCO         MOCLDY    78  72  81 NE10      30.01R
SWANQUARTER      N/A     75 N/A N/A N6G12     30.00R

$$

NCZ095-097-098-100-101-051000-
SOUTHERN COAST

CITY           SKY/WX    TMP DP  RH WIND       PRES   REMARKS
BEAUFORT       MOCLDY    76  76 100 N12       30.00R
CEDAR ISLAND     N/A     81 N/A N/A NE9G22    30.06R
JACKSONVILLE   MOCLDY    73  70  90 N8        30.02S FOG
PINEY ISLAND   PTSUNNY  N/A N/A N/A NE14      30.01R
WILMINGTON     MOCLDY    72  71  97 NE8       30.03R FOG


$$

NCZ011>013-027>030-043-044-078>080-089-090>093-098-051000-
COASTAL PLAIN

CITY           SKY/WX    TMP DP  RH WIND       PRES   REMARKS
AHOSKIE        CLEAR     68  67  96 N3        30.09R FOG
CLINTON        CLEAR     71  71 100 NE3       30.06S FOG
ELIZABETHTOWN  CLEAR     70  70 100 CALM      30.05S FOG
GOLDSBORO      CLEAR     71  70  98 N7        30.05R
GREENVILLE     CLEAR     70  70 100 N6        30.08S FOG
HAVELOCK       PTCLDY    75  73  93 N13       30.03S
KENANSVILLE      N/A     70  69  96 N5        30.07R FOG
KINSTON        CLEAR     71  70  98 N7        30.07S FOG
NEW BERN       MOCLDY    74  71  91 N8        30.04S
RICHLANDS      CLEAR     72  64  78 N3        30.05R
ROCKY MOUNT    CLEAR     70  69  97 N5        30.08R FOG
WASHINGTON     CLOUDY    72  70  93 N6        30.06S
WHITEVILLE     PTCLDY    71  69  95 N3        30.03S FOG

$$

AMZ130-135-150-152-154-156-158-170-250-252-270-ANZ085-086-088-633-658-670-051000-
MARINE OBSERVATIONS

STATION/POSITION TIME  TEMP    WIND        PRES    WAVE   SWELL
                       AIR SEA DIR/SP/G            HT/PER HT/PER
                 (UTC) (F)     (DEG/KT/KT) (MB)    (FT/S) (FT/S)
CHESAPEAKE LIGHT 0900   78      50/ 20/ 22 1018.4
64 E VA BEACH    0850   80 80   50/ 19/ 23 1016.2    4/ 6   2/ 8
DUCK             0900   79 80   40/ 16/ 18 1016.5
2 E DUCK         0911      80                N/A     4/ 6
OREGON INLET     0900   78 81   30/ 12/ 16 1016.6
13E OREGON INLT  0900      80                N/A     4/ 6
HATTERAS CG      0900   79 83   40/ 13/ 17 1015.9
DIAMOND BUOY     0850   81 84   40/ 17/ 19 1015.6    4/ 5   2/10
CAPE LOOKOUT     0900   80      50/ 16/ 17 1015.5
BEAUFORT LAB     0900   78 83   10/ 10/ 14 1015.2
30 SE NEW RVR IN 0808   80 82   10/ 12/ 16 1015.7
30 SE NEW RVR IN 0825      82                N/A     2/ 4
27 SE WRIGHTSVLE 0900   76 82   30/ 14/ 17   N/A
5 SE WRIGHTSVLE  0808   77 82   10/ 12/ 16 1016.1
225 S CAPE HAT   0850   82 84   30/  8/ 10 1013.9    2/ 9   2/ 9
41 SE CHARLESTON 0850   81 84   20/ 12/ 14 1014.9    1/ 8

$$


USA.gov is the U.S. government's official web portal to all federal, state and local government web resources and services.